TimeEDT,TemperatureF,Dew PointF,Humidity,Sea Level PressureIn,VisibilityMPH,Wind Direction,Wind SpeedMPH,Gust SpeedMPH,PrecipitationIn,Events,Conditions,WindDirDegrees,DateUTC
12:15 AM,68.0,66.2,94,29.94,0.2,Calm,Calm,-,N/A,,Overcast,0,2012-09-07 04:15:00
12:55 AM,68.0,66.2,94,29.93,0.2,Calm,Calm,-,N/A,,Overcast,0,2012-09-07 04:55:00
1:35 AM,68.0,66.2,94,29.93,0.5,Calm,Calm,-,N/A,,Overcast,0,2012-09-07 05:35:00
1:55 AM,68.0,66.2,94,29.92,0.2,Calm,Calm,-,N/A,,Overcast,0,2012-09-07 05:55:00
2:15 AM,66.2,64.4,94,29.92,4.0,Calm,Calm,-,N/A,,Mostly Cloudy,0,2012-09-07 06:15:00
2:35 AM,66.2,64.4,94,29.91,2.5,WNW,3.5,-,N/A,,Partly Cloudy,290,2012-09-07 06:35:00
2:55 AM,66.2,64.4,94,29.90,10.0,Calm,Calm,-,N/A,,Clear,0,2012-09-07 06:55:00
3:15 AM,66.2,64.4,94,29.90,4.0,Calm,Calm,-,N/A,,Clear,0,2012-09-07 07:15:00
3:35 AM,66.2,64.4,94,29.90,10.0,North,4.6,-,N/A,,Clear,10,2012-09-07 07:35:00
4:15 AM,66.2,62.6,88,29.92,6.0,North,4.6,-,N/A,,Clear,350,2012-09-07 08:15:00
4:35 AM,66.2,64.4,94,29.91,7.0,Calm,Calm,-,N/A,,Clear,0,2012-09-07 08:35:00
4:55 AM,66.2,64.4,94,29.93,3.0,Calm,Calm,-,N/A,,Clear,0,2012-09-07 08:55:00
5:15 AM,64.4,62.6,94,29.93,1.0,Calm,Calm,-,N/A,,Overcast,0,2012-09-07 09:15:00
5:35 AM,64.4,62.6,94,29.93,0.8,Calm,Calm,-,N/A,,Overcast,0,2012-09-07 09:35:00
5:45 AM,64.4,62.6,94,29.94,1.0,Calm,Calm,-,N/A,,Mist,0,2012-09-07 09:45:00
6:25 AM,64.4,62.6,94,29.94,2.0,North,4.6,-,N/A,,Clear,10,2012-09-07 10:25:00
6:45 AM,62.6,60.8,94,29.94,6.0,Calm,Calm,-,N/A,,Clear,0,2012-09-07 10:45:00
7:45 AM,66.2,64.4,94,29.96,4.0,Calm,Calm,-,N/A,,Clear,0,2012-09-07 11:45:00
8:45 AM,69.8,66.2,88,29.96,8.0,Calm,Calm,-,N/A,,Haze,0,2012-09-07 12:45:00
9:45 AM,73.4,66.2,78,29.97,10.0,NNE,4.6,-,N/A,,Clear,30,2012-09-07 13:45:00
10:45 AM,78.8,66.2,65,29.97,10.0,Calm,Calm,-,N/A,,Partly Cloudy,0,2012-09-07 14:45:00
11:55 AM,80.6,69.8,70,29.96,10.0,South,8.1,-,N/A,,Scattered Clouds,170,2012-09-07 15:55:00
12:45 PM,80.6,66.2,61,29.96,10.0,SSE,5.8,-,N/A,,Scattered Clouds,150,2012-09-07 16:45:00
1:45 PM,80.6,68.0,65,29.95,10.0,WSW,4.6,-,N/A,,Scattered Clouds,240,2012-09-07 17:45:00
2:45 PM,82.4,68.0,62,29.93,10.0,South,11.5,-,N/A,,Scattered Clouds,180,2012-09-07 18:45:00
3:45 PM,82.4,68.0,62,29.93,10.0,SSW,10.4,-,N/A,,Scattered Clouds,210,2012-09-07 19:45:00
4:45 PM,82.4,69.8,66,29.92,10.0,SSW,11.5,-,N/A,,Scattered Clouds,200,2012-09-07 20:45:00
5:45 PM,80.6,69.8,70,29.93,7.0,SSW,11.5,-,N/A,,Clear,200,2012-09-07 21:45:00
6:47 PM,75.2,69.8,83,29.93,8.0,South,6.9,-,N/A,,Clear,180,2012-09-07 22:47:00
9:15 PM,71.6,66.2,83,29.94,10.0,SSE,5.8,-,N/A,,Clear,150,2012-09-08 01:15:00
9:35 PM,71.6,66.2,83,29.94,10.0,South,5.8,-,N/A,,Clear,170,2012-09-08 01:35:00
9:55 PM,71.6,66.2,83,29.93,10.0,SSE,5.8,-,N/A,,Clear,160,2012-09-08 01:55:00
10:35 PM,69.8,66.2,88,29.93,10.0,SSE,5.8,-,N/A,,Clear,160,2012-09-08 02:35:00
10:55 PM,69.8,66.2,88,29.92,8.0,South,6.9,-,N/A,,Clear,170,2012-09-08 02:55:00
11:15 PM,69.8,66.2,88,29.91,8.0,South,5.8,-,N/A,,Clear,170,2012-09-08 03:15:00
11:35 PM,69.8,66.2,88,29.90,8.0,SSE,4.6,-,N/A,,Clear,160,2012-09-08 03:35:00
11:55 PM,69.8,66.2,88,29.88,8.0,SSE,5.8,-,N/A,,Clear,160,2012-09-08 03:55:00